Puyallup, WA

12:50 AM PDT on July 28, 2017 (GMT -0700)
Pierce County - Thun Field

Weather History for KPLU - February, 2014

Change the Weather History Date:

Sunday, February 23, 2014

  Actual Average (KTCM) Record (KTCM)
Temperature  
Mean Temperature 40 °F -  
Max Temperature 44 °F 48 °F 64 °F (1958)
Min Temperature 37 °F 30 °F 24 °F (1998)
Degree Days  
Heating Degree Days 24    
Moisture  
Dew Point 38 °F    
Average Humidity 92    
Maximum Humidity 100    
Minimum Humidity 76    
Precipitation  
Precipitation 0.20 in - - ()
Sea Level Pressure  
Sea Level Pressure 29.98 in    
Wind  
Wind Speed 1 mph (WSW)    
Max Wind Speed 6 mph    
Max Gust Speed -    
Visibility 7 miles    
Events Rain    
Averages and records for this station are not official NWS values.
T = Trace of Precipitation, MM = Missing Value Source: NWS Daily Summary

Daily Weather History Graph

Daily Weather History Graph

Search for Another Location

Airport or City:

Trip Planner

Search our weather history database for the weather conditions in past years. The results will help you decide how hot, cold, wet, or windy it might be!

Date:

Astronomy

Feb. 23, 2014 Rise Set
Actual Time 6:59 AM PST 5:45 PM PST
Civil Twilight 6:29 AM PST 6:16 PM PST
Nautical Twilight 5:53 AM PST 6:52 PM PST
Astronomical Twilight 5:18 AM PST 7:27 PM PST
Moon 2:15 AM PST (2/23) 11:41 AM PST (2/23)
Length of Visible Light 11h 47m
Length of Day
10h 45m
Last Quarter, 38% of the Moon is Illuminated
Feb 23
Last Quarter
Mar 1
New
Mar 8
First Quarter
Mar 16
Full
Mar 23
Last Quarter

Hourly Weather History & Observations

Time (PST) Temp. Windchill Dew Point Humidity Pressure Visibility Wind Dir Wind Speed Gust Speed Precip Events Conditions
12:15 AM 39.2 °F - 35.6 °F 87% 30.05 in 10.0 mi Calm Calm - N/A   Unknown
12:35 AM 37.4 °F - 35.6 °F 93% 30.05 in 10.0 mi Calm Calm - N/A   Unknown
1:00 AM 39.2 °F 35.9 °F 35.6 °F 87% 30.04 in 10.0 mi South 4.6 mph - N/A   Unknown
1:15 AM 39.2 °F - 35.6 °F 87% 30.04 in 10.0 mi Calm Calm - N/A   Unknown
1:35 AM 39.2 °F - 35.6 °F 87% 30.04 in 10.0 mi Calm Calm - N/A   Unknown
1:55 AM 39.2 °F 37.0 °F 35.6 °F 87% 30.03 in 10.0 mi South 3.5 mph - N/A   Unknown
2:15 AM 39.2 °F - 35.6 °F 87% 30.03 in 10.0 mi Calm Calm - N/A   Unknown
2:35 AM 37.4 °F - 35.6 °F 93% 30.02 in 10.0 mi Calm Calm - N/A   Unknown
2:55 AM 37.4 °F - 35.6 °F 93% 30.02 in 10.0 mi Calm Calm - N/A   Unknown
3:15 AM 37.4 °F - 35.6 °F 93% 30.02 in 10.0 mi Calm Calm - N/A   Unknown
3:35 AM 37.4 °F - 35.6 °F 93% 30.01 in 10.0 mi Calm Calm - N/A   Unknown
3:55 AM 37.4 °F - 37.4 °F 100% 30.01 in 10.0 mi Calm Calm - N/A   Unknown
4:15 AM 37.4 °F - 37.4 °F 100% 30.00 in 10.0 mi Calm Calm - N/A   Unknown
4:35 AM 37.4 °F - 37.4 °F 100% 29.99 in 10.0 mi Calm Calm - N/A   Unknown
4:55 AM 39.2 °F 37.0 °F 35.6 °F 87% 29.99 in 10.0 mi WSW 3.5 mph - N/A   Unknown
5:15 AM 39.2 °F - 35.6 °F 87% 29.98 in 10.0 mi Calm Calm - N/A   Unknown
5:40 AM 39.2 °F 37.0 °F 35.6 °F 87% 29.98 in 10.0 mi SW 3.5 mph - N/A   Unknown
5:55 AM 39.2 °F 35.9 °F 35.6 °F 87% 29.98 in 10.0 mi SW 4.6 mph - N/A   Unknown
6:15 AM 39.2 °F - 35.6 °F 87% 29.98 in 10.0 mi Calm Calm - N/A   Unknown
6:35 AM 39.2 °F - 35.6 °F 87% 29.97 in 10.0 mi Calm Calm - N/A   Unknown
6:55 AM 39.2 °F 35.0 °F 35.6 °F 87% 29.98 in 10.0 mi WSW 5.8 mph - N/A   Unknown
7:15 AM 39.2 °F 35.9 °F 35.6 °F 87% 29.98 in 10.0 mi WSW 4.6 mph - N/A   Unknown
7:35 AM 39.2 °F - 35.6 °F 87% 29.97 in 10.0 mi Calm Calm - N/A   Unknown
7:55 AM 39.2 °F - 35.6 °F 87% 29.97 in 10.0 mi Calm Calm - N/A   Unknown
8:15 AM 39.2 °F - 35.6 °F 87% 29.96 in 10.0 mi Calm Calm - N/A   Unknown
8:35 AM 41.0 °F - 35.6 °F 81% 29.97 in 10.0 mi Calm Calm - N/A   Unknown
8:55 AM 41.0 °F 39.0 °F 35.6 °F 81% 29.97 in 10.0 mi West 3.5 mph - N/A   Unknown
9:15 AM 41.0 °F - 35.6 °F 81% 29.96 in 10.0 mi Calm Calm - N/A   Unknown
9:35 AM 41.0 °F - 35.6 °F 81% 29.97 in 10.0 mi Calm Calm - N/A   Unknown
9:55 AM 41.0 °F - 35.6 °F 81% 29.97 in 10.0 mi Calm Calm - N/A   Unknown
10:15 AM 41.0 °F - 35.6 °F 81% 29.98 in 10.0 mi Calm Calm - N/A   Unknown
10:35 AM 41.0 °F - 37.4 °F 87% 29.97 in 10.0 mi Calm Calm - N/A   Unknown
10:55 AM 42.8 °F - 37.4 °F 81% 29.96 in 10.0 mi Calm Calm - N/A   Unknown
11:15 AM 42.8 °F - 37.4 °F 81% 29.96 in 10.0 mi Calm Calm - N/A   Unknown
11:35 AM 42.8 °F - 37.4 °F 81% 29.95 in 10.0 mi Calm Calm - N/A   Unknown
11:55 AM 44.6 °F - 37.4 °F 76% 29.95 in 10.0 mi Calm Calm - N/A   Unknown
12:15 PM 44.6 °F - 37.4 °F 76% 29.95 in 10.0 mi Calm Calm - N/A   Unknown
12:35 PM 44.6 °F - 37.4 °F 76% 29.95 in 10.0 mi Calm Calm - N/A   Unknown
12:55 PM 44.6 °F - 37.4 °F 76% 29.95 in 10.0 mi Calm Calm - N/A   Unknown
1:15 PM 44.6 °F - 37.4 °F 76% 29.95 in 10.0 mi Calm Calm - N/A Rain Light Rain
1:35 PM 44.6 °F - 39.2 °F 81% 29.94 in 9.0 mi Calm Calm - N/A Rain Light Rain
1:55 PM 42.8 °F - 39.2 °F 87% 29.95 in 8.0 mi Calm Calm - 0.01 in Rain Light Rain
2:15 PM 42.8 °F - 42.8 °F 100% 29.94 in 7.0 mi Calm Calm - 0.01 in Rain Light Rain
2:35 PM 42.8 °F - 42.8 °F 100% 29.95 in 5.0 mi Calm Calm - 0.02 in Rain Light Rain
2:55 PM 42.8 °F - 42.8 °F 100% 29.94 in 4.0 mi Calm Calm - 0.04 in Rain Light Rain
3:15 PM 42.8 °F - 42.8 °F 100% 29.95 in 5.0 mi Calm Calm - 0.01 in Rain Light Rain
3:35 PM 42.8 °F - 42.8 °F 100% 29.95 in 5.0 mi Calm Calm - 0.03 in Rain Light Rain
3:55 PM 41.0 °F - 41.0 °F 100% 29.95 in 5.0 mi Calm Calm - 0.05 in Rain Light Rain
4:15 PM 41.0 °F 39.0 °F 41.0 °F 100% 29.96 in 4.0 mi WNW 3.5 mph - 0.01 in   Unknown
4:35 PM 41.0 °F - 41.0 °F 100% 29.95 in 2.5 mi Calm Calm - 0.02 in Rain Light Rain
4:55 PM 41.0 °F - 41.0 °F 100% 29.95 in 2.5 mi Calm Calm - 0.02 in Rain Light Rain
5:15 PM 41.0 °F - 41.0 °F 100% 29.96 in 2.5 mi Calm Calm - N/A Rain Light Rain
5:35 PM 41.0 °F - 41.0 °F 100% 29.97 in 1.8 mi Calm Calm - 0.01 in Rain Light Rain
5:55 PM 41.0 °F - 41.0 °F 100% 29.97 in 4.0 mi Calm Calm - 0.02 in Rain Light Rain
6:15 PM 41.0 °F - 41.0 °F 100% 29.97 in 4.0 mi Calm Calm - 0.01 in Rain Light Rain
6:35 PM 41.0 °F 39.0 °F 41.0 °F 100% 29.98 in 3.0 mi NW 3.5 mph - 0.03 in Rain Light Rain
6:55 PM 41.0 °F - 41.0 °F 100% 29.98 in 2.5 mi Calm Calm - 0.04 in Rain Light Rain
7:15 PM 41.0 °F - 41.0 °F 100% 29.98 in 2.5 mi Calm Calm - 0.01 in Rain Light Rain
7:35 PM 41.0 °F - 41.0 °F 100% 29.98 in 1.5 mi Calm Calm - 0.01 in Rain Light Rain
7:55 PM 39.2 °F 37.0 °F 39.2 °F 100% 29.99 in 2.5 mi North 3.5 mph - 0.01 in Rain Light Rain
8:15 PM 39.2 °F - 39.2 °F 100% 29.99 in 3.0 mi Calm Calm - N/A Rain Light Rain
8:35 PM 39.2 °F 37.0 °F 39.2 °F 100% 30.00 in 2.5 mi North 3.5 mph - N/A Rain Light Rain
8:55 PM 39.2 °F - 39.2 °F 100% 30.00 in 3.0 mi Calm Calm - 0.01 in Rain Light Rain
9:15 PM 39.2 °F - 39.2 °F 100% 30.00 in 3.0 mi Calm Calm - N/A Rain Light Rain
9:35 PM 39.2 °F - 39.2 °F 100% 30.01 in 3.0 mi Calm Calm - N/A Rain Light Rain
9:55 PM 39.2 °F - 39.2 °F 100% 30.01 in 2.0 mi Calm Calm - N/A Rain Light Rain
10:15 PM 39.2 °F - 39.2 °F 100% 30.01 in 1.5 mi Calm Calm - N/A   Mist
10:35 PM 39.2 °F - 39.2 °F 100% 30.01 in 1.8 mi Calm Calm - N/A   Mist
10:55 PM 39.2 °F - 39.2 °F 100% 30.02 in 3.0 mi Calm Calm - N/A   Mist
11:15 PM 39.2 °F - 39.2 °F 100% 30.02 in 1.0 mi Calm Calm - N/A   Mist
11:35 PM 39.2 °F - 39.2 °F 100% 30.02 in 2.5 mi Calm Calm - N/A   Mist
11:55 PM 39.2 °F - 39.2 °F 100% 30.03 in 3.0 mi Calm Calm - N/A   Mist